COSMOS 2587

导读

COSMOS 2587(宇宙2587)是独联体(CIS)发射的“宇宙”系列卫星,该系列多为俄罗斯军用卫星,承担侦察、技术试验等军事航天任务。它于2025年3月16日成功发射入轨,延续了“宇宙”系列保密研发的特点,具体任务细节暂未公开,将服务于独联体地区太空态势感知与军事航天能力建设。

基本信息
目录编号:
63290
目录名称:
COSMOS 2587
国际标识:
2025-054C
轨道中心:
EARTH
卫星名称:
COSMOS 2587
卫星全名:
COSMOS 2587
卫星状态:
在轨 (已飞行458 天)
发射日期:
2025-03-16 UTC
国别 :
俄罗斯(独联体) (CIS)
星等 :
--
轨道信息
数据来源 国际轨道数据 AOE轨道数据
星历时间 2026-06-17T12:00:15+0800
10小时前
查看轨道信息
2026-06-17T03:00:00+0800
19小时前
查看轨道信息
半长轴 7872.502km 7872.48km
偏心率 0.0015564 0.0016023
轨道倾角 82.498° 82.495°
近地点辐角 15.948° 16.879°
升交点赤经 78.724° 78.957°
平近点角 344.209° 105.433°
近地点 1482.112km 1481.728km
远地点 1506.618km 1506.958km
周期 115.859分钟 115.858分钟
每日圈数 12.428928 12.428978
详细信息
使用方式:
暂无
2D轨道图
3D轨道图
轨道高度分析图
轨道倾角分析图
轨道综合分析图
查看轨道综合分析图